Location: Waco, TX
(31.5480°N, 97.1670°W)
Time: 14:24:40
(UTC-06:00)

ISS - Pass Details

Date: 18 November 2017
Orbit: 401 x 407 km, 51.6° (Epoch: 25 November)

Event Time Altitude Azimuth Distance (km) Brightness Sun altitude
Rises 21:12:02 0° 214° (SW) 2,307 - -47.5°
Reaches altitude 10° 21:14:08 10° 210° (SSW) 1,450 - -48.0°
Maximum altitude 21:17:18 53° 132° (SE) 501 - -48.6°
Drops below altitude 10° 21:20:29 10° 54° (NE) 1,455 - -49.3°
Sets 21:22:36 0° 50° (NE) 2,316 - -49.8°
